Flag for Cameroon Weather past 2 weeks in Yaoundé, Cameroon

Now
72 °F

Passing clouds.


Feels Like: 69 °F
Forecast: 68 / 73 °F
Wind: 2 mph from West

Location: Yaounde Airport

Current Time: Jul 29, 2014 at 10:09:49 PM

Latest Report: Jul 29, 2014 at 9:00 PM


Visibility: N/A

Pressure: 30.04 "Hg

Humidity: 88%

Dew point: 68 °F

Location of YaoundéLocation

Historic Weather in Yaoundé — Graph

°F

Yaoundé temperature yesterday

Maximum temperature yesterday: 81 °F (at 3:00 PM)
Minimum temperature yesterday: 68 °F (at 6:00 AM)
Average temperature yesterday: 74 °F

Past Weeks' High & Low Weather Summary

 TemperatureHumidityPressure
High81 °F (Jul 16, 1:00 PM)100% (Jul 24, 1:00 AM)30.15 "Hg (Jul 24, 1:00 AM)
Low66 °F (Jul 25, 8:00 AM)62% (Jul 16, 1:00 PM)29.95 "Hg (Jul 27, 5:00 PM)
Average72 °F85%30.08 "Hg
* Reported Jul 14 9:00 PM — Jul 29 9:00 PM, Yaoundé, Weather by CustomWeather, © 2014

Note: Actual official high and low records may vary slightly from our data, if they occured in-between our weather recording intervals... More about our weather records

Advertising

Yaoundé weather history for previous 24 hours

 ConditionsComfort  
Time TempWeatherWind HumidityBarometerVisibility
9:00 PM
Jul 29
72 °FPassing clouds.2 mph88%30.04 "HgN/A
8:00 PM73 °FPassing clouds.5 mph83%30.04 "HgN/A
7:00 PM73 °FPassing clouds.6 mph83%30.01 "HgN/A
6:00 PM75 °FPartly sunny.5 mph83%30.01 "HgN/A
5:00 PM75 °FPartly sunny.8 mph83%29.98 "HgN/A
4:00 PM77 °FPartly sunny.3 mph79%29.98 "HgN/A
3:00 PM79 °FPartly sunny.5 mph74%29.98 "HgN/A
2:00 PM81 °FPartly sunny.6 mph70%29.98 "HgN/A
1:00 PM79 °FPartly sunny.6 mph70%30.01 "HgN/A
12:00 PM77 °FPartly sunny.10 mph74%30.04 "HgN/A
11:00 AM77 °FPartly sunny.7 mph74%30.04 "HgN/A
10:00 AM75 °FPartly sunny.7 mph74%30.07 "HgN/A
9:00 AM72 °FPartly sunny.5 mph83%30.07 "HgN/A
8:00 AM72 °FPartly sunny.3 mph83%30.07 "HgN/A
7:00 AM70 °FPartly sunny.5 mph88%30.01 "HgN/A
6:00 AM70 °FPassing clouds.5 mph88%30.01 "HgN/A
5:00 AM68 °FPassing clouds.5 mph94%30.01 "HgN/A
4:00 AM68 °FPassing clouds.5 mph94%30.01 "HgN/A
3:00 AM68 °FPassing clouds.2 mph94%30.01 "HgN/A
2:00 AM68 °FPassing clouds.2 mph94%30.01 "HgN/A
1:00 AM70 °FPassing clouds.5 mph88%30.04 "HgN/A
11:00 PM
Jul 28
70 °FPassing clouds.3 mph88%30.04 "HgN/A
10:00 PM72 °FPassing clouds.6 mph88%30.04 "HgN/A
Weather by CustomWeather, © 2014

See weather overviewHow to use our weather pages